Weather History for MWCR - January, 2014

Change the Weather History Date:

Saturday, January 11, 2014

  Actual Average Record
Temperature  
Mean Temperature 80 °F -  
Max Temperature 85 °F 80 °F - ()
Min Temperature 74 °F 73 °F - ()
Cooling Degree Days 14    
Growing Degree Days 30 (Base 50)    
Moisture  
Dew Point 75 °F    
Average Humidity 83    
Maximum Humidity 100    
Minimum Humidity 62    
Precipitation  
Precipitation 0.00 in - - ()
Sea Level Pressure  
Sea Level Pressure 30.04 in    
Wind  
Wind Speed 5 mph ()    
Max Wind Speed 13 mph    
Max Gust Speed -    
Visibility 6.2 miles    
Events      
T = Trace of Precipitation, MM = Missing Value Source: Averaged Metar Reports

Daily Weather History Graph

Daily Weather History Graph

Search for Another Location

Airport or City:

Trip Planner

Search our weather history database for the weather conditions in past years. The results will help you decide how hot, cold, wet, or windy it might be!

Date:

Astronomy

Jan. 11, 2014 Rise Set
Actual Time 7:01 AM EST 6:05 PM EST
Civil Twilight 6:38 AM EST 6:28 PM EST
Nautical Twilight 6:10 AM EST 6:56 PM EST
Astronomical Twilight 5:44 AM EST 7:22 PM EST
Moon 2:43 PM EST (1/11) 3:12 AM EST (1/11)
Length of Visible Light 11h 50m
Length of Day
11h 03m
Waxing Gibbous, 83% of the Moon is Illuminated
Jan 11
Waxing Gibbous
Jan 15
Full
Jan 24
Last Quarter
Jan 30
New
Feb 6
First Quarter

Hourly Weather History & Observations

Time (EST) Temp. Heat Index Dew Point Humidity Pressure Visibility Wind Dir Wind Speed Gust Speed Precip Events Conditions
6:00 AM 75.2 °F - 75.2 °F 100% 30.01 in 6.2 mi Variable 2.3 mph - N/A   Mostly Cloudy
7:00 AM 75 °F - 74 °F 95% 30.04 in 6 mi ESE 1.2 mph - -   Partly Cloudy
7:00 AM 75.2 °F - 73.4 °F 94% 30.04 in 6.2 mi Variable 1.2 mph - N/A   Partly Cloudy
8:00 AM 78.8 °F - 75.2 °F 89% 30.06 in 6.2 mi East 4.6 mph - N/A   Scattered Clouds
9:00 AM 80.6 °F 86.2 °F 75.2 °F 84% 30.06 in 6.2 mi East 4.6 mph - N/A   Partly Cloudy
10:00 AM 82.4 °F 88.2 °F 73.4 °F 74% 30.09 in 6.2 mi East 8.1 mph - N/A   Partly Cloudy
11:00 AM 84.2 °F 94.1 °F 77.0 °F 79% 30.09 in 6.2 mi SE 8.1 mph - N/A   Partly Cloudy
12:00 PM 84.2 °F 98.3 °F 80.6 °F 89% 30.06 in 6.2 mi SE 6.9 mph - N/A   Partly Cloudy
1:00 PM 84 °F - 81 °F 89% 30.04 in 6 mi SE 6.9 mph - -   Scattered Clouds
1:00 PM 84.2 °F 98.3 °F 80.6 °F 89% 30.04 in 6.2 mi SE 6.9 mph - N/A   Partly Cloudy
2:00 PM 84.2 °F 88.4 °F 69.8 °F 62% 30.01 in 6.2 mi SE 5.8 mph - N/A   Partly Cloudy
3:00 PM 84.2 °F 90.9 °F 73.4 °F 70% 30.01 in 6.2 mi SE 6.9 mph - N/A   Partly Cloudy
3:50 PM 86.0 °F 91.8 °F 71.6 °F 62% 30.01 in 6.2 mi SE 12.7 mph - N/A   Partly Cloudy
4:50 PM 82.4 °F 88.2 °F 73.4 °F 74% 30.01 in 6.2 mi ESE 9.2 mph - N/A   Partly Cloudy
5:50 PM 82.4 °F 88.2 °F 73.4 °F 74% 30.01 in 6.2 mi ESE 9.2 mph - N/A   Partly Cloudy
6:50 PM 78.8 °F - 73.4 °F 83% 30.01 in 6.2 mi East 6.9 mph - N/A   Partly Cloudy
7:00 PM 79 °F - 74 °F 80% 30.02 in 6 mi East 6.9 mph - -   Scattered Clouds
7:55 PM 77.0 °F - 73.4 °F 89% 30.04 in 6.2 mi East 6.9 mph - N/A   Partly Cloudy
8:50 PM 77.0 °F - 73.4 °F 89% 30.04 in 6.2 mi East 6.9 mph - N/A   Partly Cloudy
9:50 PM 78.8 °F - 75.2 °F 89% 30.06 in 6.2 mi East 6.9 mph - N/A   Partly Cloudy